Regional Weather Roundup
Issued by NWS

Home | Current Version | Previous Version | Graphics & Text | Print | Product List | Glossary On
Versions: 1 2 3 4 5 6 7 8 9 10 11 12 13 14 15 16 17 18 19 20 21 22 23 24 25 26 27 28 29 30 31 32 33 34 35 36 37 38 39 40 41 42 43 44 45 46 47 48 49 50
000
ASUS45 KBOU 280707
RWRCO

WEATHER ROUNDUP FOR COLORADO
NATIONAL WEATHER SERVICE DENVER/BOULDER CO
100 AM MDT FRI AUG 28 2015

NOTE: "FAIR" INDICATES FEW OR NO CLOUDS BELOW 12000 FEET WITH NO
SIGNIFICANT WEATHER AND/OR OBSTRUCTIONS TO VISIBILITY.

COZ001>005-013-030-031-280800-
...NORTHWEST COLORADO...

CITY           SKY/WX    TMP DP  RH WIND       PRES   REMARKS
CRAIG          CLEAR     52  49  89 CALM      30.34R
HAYDEN         NOT AVBL
MEEKER         PTCLDY    55  51  86 E6        30.35S
MOUNT WERNER   NOT AVBL
STEAMBOAT SPGS PTCLDY    49  47  95 SE6       30.36F
WALDEN         PTCLDY    43  41  93 E5        30.41S
$$

COZ006>008-011-280800-
...WEST CENTRAL VALLEYS...

CITY           SKY/WX    TMP DP  RH WIND       PRES   REMARKS
GRAND JUNCTION PTCLDY    61  56  83 SE5       30.24R
MONTROSE       LGT RAIN  61  53  75 SE10      30.34R
EAGLE          MOCLDY    57  54  88 CALM      30.38S
RIFLE          PTCLDY    57  54  89 S3        30.32R
DELTA          RAIN      64  55  74 NE8       30.30R
NUCLA          MOCLDY    66  52  59 E6        30.33R
$$

COZ017>023-064>068-280800-
...SOUTHWEST COLORADO...

CITY           SKY/WX    TMP DP  RH WIND       PRES   REMARKS
DURANGO        PTCLDY    57  50  77 CALM      30.30R
CORTEZ         CLEAR     57  52  83 NE6       30.26S
PAGOSA SPRINGS PTCLDY    54  52  95 CALM      30.38S
TELLURIDE      NOT AVBL
WOLF CREEK PAS PTCLDY    43  36  75 NE15G21   30.68S
$$

COZ009-010-012-014-032>034-037-058>063-280800-
...CENTRAL COLORADO...

CITY           SKY/WX    TMP DP  RH WIND       PRES   REMARKS
ASPEN          CLOUDY    53  47  79 SE9       30.43F
BUENA VISTA    MOCLDY    55  44  66 NW12      30.40S
COPPER MTN     CLOUDY    45  37  76 W13       30.66S
BERTHOUD PASS  FAIR      36  27  69 NW29G35   30.66R
COTTONWOOD PAS MOCLDY    54  41  62 NW8G16    30.52F
GUNNISON       PTCLDY    57  45  62 N5        30.45F
KREMMLING      MOCLDY    50  45  81 CALM      30.41S
LEADVILLE      CLOUDY    45  44  97 NE6       30.53F
MONARCH PASS   PTCLDY    45  36  70 NW13      30.77R
SALIDA         MOCLDY    55  46  71 SW7       30.46R
SUNLIGHT       MOCLDY    50  41  71 NE3       30.64S
WILKERSON PASS MOCLDY    46  37  71 W8        30.63S
$$

COZ069>075-280800-
...SAN LUIS VALLEY/SANGRE DE CRISTO MOUNTAINS...

CITY           SKY/WX    TMP DP  RH WIND       PRES   REMARKS
ALAMOSA        PTCLDY    57  49  74 S3        30.35R
LA VETA PASS   PTCLDY    46  43  87 CALM      30.52S
SAGUACHE       PTCLDY    59  46  63 NW10      30.39S
$$

COZ035-036-038>040-280800-
...NORTHERN COLORADO FRONT RANGE...

CITY           SKY/WX    TMP DP  RH WIND       PRES   REMARKS
DENVER INTL AP MOCLDY    65  55  70 SW9       30.18R
DMNS CITY PARK   N/A     65  55  70 S8        30.18R
AURORA         PTCLDY    62  55  78 S3        30.20S
FRONT RANGE AP MOCLDY    63  54  72 SW8       30.19S
ERIE MUNI ARPT MOCLDY    61  58  88 CALM      30.17R
BOULDER MUN AP MOCLDY    66  52  59 W3        30.18R
CENTENNIAL     MOCLDY    62  54  74 CALM      30.21R
BROOMFIELD     MOCLDY    66  50  55 N10       30.21R
FORT COLLINS   PTCLDY    63  54  72 N5        30.18R
LONGMONT       PTCLDY    67  55  65 CALM      30.19R
$$

COZ041-046-047-076>085-087-088-280800-
...PIKES PEAK/PALMER DIVIDE AND SOUTHERN FOOTHILLS...

CITY           SKY/WX    TMP DP  RH WIND       PRES   REMARKS
COLO. SPRINGS  PTCLDY    60  53  77 N3        30.25F
A. F. ACADEMY  PTCLDY    54  52  93 NW7       30.26F
ELLICOTT       CLEAR    N/A N/A N/A CALM      30.22F
FALCON         CLEAR     56  50  79 MISG      30.29F
FORT CARSON    CLEAR     58  55  89 NW5       30.21F
LIMON          CLEAR     57  55  93 VRB3      30.17R
MONUMENT HILL  PTCLDY    54  48  82 SW7       30.30R
TRINIDAD       MOCLDY    61  56  83 W9        30.21F
$$

COZ042>045-048>051-090-091-280800-
...NORTHEAST COLORADO...

CITY           SKY/WX    TMP DP  RH WIND       PRES   REMARKS
GREELEY ARPT   MOCLDY    63  55  77 CALM      30.16S
AKRON          CLEAR     59  57  93 W8        30.11F
BURLINGTON     PTCLDY    62  56  80 NW7       30.09R
WRAY           NOT AVBL
STERLING       CLEAR     59  54  82 CALM      30.07S
HOLYOKE        CLEAR     63  55  77 NW6       30.05R
FORT MORGAN    NOT AVBL
$$

COZ086-089-092>099-280800-
...SOUTHEAST COLORADO...

CITY           SKY/WX    TMP DP  RH WIND       PRES   REMARKS
PUEBLO         CLEAR     65  60  84 W6        30.15F
LA JUNTA       MOCLDY    68  59  73 NW14      30.11R
LAMAR          MOCLDY    67  62  84 VRB5      30.04R
SPRINGFIELD      N/A     68  59  73 NW9       30.09S
$$



USA.gov is the U.S. government's official web portal to all federal, state and local government web resources and services.